EW8735 Weather Reports


time (UTC)temp
C
wind
direction
speed
KPH
gust
KPH
rain 1hr
cm
rain 24hr
cm
rain mn
cm
humidity
%
barometer
mb
20260509161554 16 359 0.0 0.0 0.00 0.00 0.00 54 1018.4
20260509160056 15 359 0.0 0.0 0.00 0.00 0.00 56 1018.3
20260509154554 15 359 0.0 0.0 0.00 0.00 0.00 57 1018.4
20260509153046 14 359 0.0 0.0 0.00 0.00 0.00 59 1018.3
20260509151545 13 318 0.0 0.0 0.00 0.00 0.00 59 1018.3
20260509150043 13 337 0.0 0.0 0.00 0.00 0.00 64 1018.3
20260509144542 13 213 0.0 0.0 0.00 0.00 0.00 63 1018.3
20260509143038 13 218 0.0 0.0 0.00 0.00 0.00 71 1018.2
20260509141536 11 218 0.0 0.0 0.00 0.00 0.00 78 1018.2
20260509140036 10 217 0.0 0.0 0.00 0.00 0.00 78 1018.3
20260509134534 9 218 0.0 0.0 0.00 0.00 0.00 80 1018.2
20260509133033 8 189 0.0 0.0 0.00 0.00 0.00 79 1018.3
20260509131532 8 187 0.0 0.0 0.00 0.00 0.00 79 1018.2
20260509130031 7 212 0.0 0.0 0.00 0.00 0.00 81 1018.1
20260509124529 7 212 0.0 0.0 0.00 0.00 0.00 81 1017.9
20260509123029 7 213 0.0 0.0 0.00 0.00 0.00 80 1017.9
20260509121530 7 213 0.0 0.0 0.00 0.00 0.00 81 1018.0
20260509120027 7 213 0.0 0.0 0.00 0.00 0.00 82 1017.8
20260509114524 7 212 0.0 0.0 0.00 0.00 0.00 80 1017.7
20260509113023 7 213 0.0 0.0 0.00 0.00 0.00 79 1018.0
20260509111521 7 212 0.0 0.0 0.00 0.00 0.00 79 1017.9
20260509110020 7 212 0.0 0.0 0.00 0.00 0.00 78 1017.9
20260509104532 8 212 0.0 0.0 0.00 0.00 0.00 76 1018.0
20260509103016 8 212 0.0 0.0 0.00 0.00 0.00 77 1017.7
20260509101515 8 213 0.0 0.0 0.00 0.00 0.00 75 1017.7
20260509100011 9 212 0.0 0.0 0.00 0.00 0.00 73 1017.9
20260509094509 8 213 0.0 0.0 0.00 0.00 0.00 74 1017.6
20260509093009 10 212 0.0 0.0 0.00 0.00 0.00 70 1017.7
20260509091506 10 212 0.0 0.0 0.00 0.00 0.00 69 1017.5
20260509090007 9 213 0.0 0.0 0.00 0.00 0.00 73 1017.5
20260509084511 9 212 0.0 0.0 0.00 0.00 0.00 73 1017.5
20260509083004 9 212 0.0 0.0 0.00 0.00 0.00 74 1017.5
20260509081601 9 212 0.0 0.0 0.00 0.00 0.00 72 1017.5
20260509080100 10 212 0.0 0.0 0.00 0.00 0.00 69 1017.3
20260509074554 10 212 0.0 0.0 0.00 0.00 0.00 69 1017.2
20260509073052 10 213 0.0 0.0 0.00 0.00 0.00 68 1017.1
20260509071548 11 212 0.0 0.0 0.00 0.00 0.00 64 1016.9
20260509070046 12 212 0.0 0.0 0.00 0.00 0.00 61 1016.8
20260509064546 12 212 0.0 0.0 0.00 0.00 0.00 58 1016.7
20260509063043 13 212 0.0 0.0 0.00 0.00 0.00 56 1016.7
20260509061543 13 226 0.0 0.0 0.00 0.00 0.00 56 1016.6
20260509060043 13 225 0.0 0.0 0.00 0.00 0.00 54 1016.5
20260509054542 13 218 0.0 0.0 0.00 0.00 0.00 54 1016.6
20260509053041 14 221 0.0 0.0 0.00 0.00 0.00 52 1016.4
20260509051540 14 213 0.0 0.0 0.00 0.00 0.00 49 1016.3
20260509050043 13 216 0.0 0.0 0.00 0.00 0.00 53 1016.0
20260509044536 15 231 0.0 0.0 0.00 0.00 0.00 47 1015.9
20260509043035 15 241 0.0 0.0 0.00 0.00 0.00 47 1015.7
20260509041533 16 239 0.0 0.0 0.00 0.00 0.00 44 1015.5
20260509040032 16 235 0.0 0.0 0.00 0.00 0.00 43 1015.3
20260509034529 16 222 0.0 0.0 0.00 0.00 0.00 43 1015.0
20260509033027 16 221 0.0 0.0 0.00 0.00 0.00 43 1014.8
20260509031528 16 220 0.0 0.0 0.00 0.00 0.00 43 1014.4
20260509030023 17 223 0.0 0.0 0.00 0.00 0.00 40 1013.9
20260509024520 18 247 0.0 0.0 0.00 0.00 0.00 36 1013.8
20260509023022 19 258 0.0 0.0 0.00 0.00 0.00 35 1013.6
20260509021520 19 257 0.0 0.0 0.00 0.00 0.00 35 1013.3
20260509020019 20 238 0.0 0.0 0.00 0.00 0.00 33 1013.1
20260509014535 20 248 0.0 0.0 0.00 0.00 0.00 32 1012.9
20260509013017 21 235 0.0 0.0 0.00 0.00 0.00 30 1012.7
20260509011518 21 258 0.0 0.0 0.00 0.00 0.00 29 1012.8
20260509010018 22 258 0.0 0.0 0.00 0.00 0.00 27 1012.9
20260509004517 21 256 0.0 0.0 0.00 0.00 0.00 26 1013.0
20260509003027 22 265 0.0 0.0 0.00 0.00 0.00 27 1013.0
20260509001518 22 259 0.0 0.0 0.00 0.00 0.00 25 1012.9
20260509000016 22 268 0.0 0.0 0.00 0.00 0.00 25 1012.9
20260508234516 22 359 0.0 0.0 0.00 0.00 0.00 25 1012.9
20260508233015 22 243 0.0 0.0 0.00 0.00 0.00 23 1012.9
20260508231514 22 250 0.0 0.0 0.00 0.00 0.00 20 1013.1
20260508230014 23 288 0.0 0.0 0.00 0.00 0.00 22 1012.8
20260508224513 22 279 0.0 0.0 0.00 0.00 0.00 23 1012.9
20260508223021 23 258 0.0 0.0 0.00 0.00 0.00 25 1013.0
20260508221511 22 293 0.0 0.0 0.00 0.00 0.00 25 1012.9
20260508220011 22 262 0.0 0.0 0.00 0.00 0.00 25 1013.0
20260508214510 22 258 0.0 0.0 0.00 0.00 0.00 25 1013.0
20260508213010 22 293 0.0 0.0 0.00 0.00 0.00 30 1013.0
20260508211520 22 305 0.0 0.0 0.00 0.00 0.00 34 1013.0
20260508210009 22 319 0.0 0.0 0.00 0.00 0.00 33 1013.0
20260508204508 23 283 0.0 0.0 0.00 0.00 0.00 36 1012.7
20260508203006 23 291 0.0 0.0 0.00 0.00 0.00 32 1012.5
20260508201504 23 19 0.0 0.0 0.00 0.00 0.00 34 1012.4
20260508200003 22 303 0.0 0.0 0.00 0.00 0.00 35 1012.4
20260508194604 21 349 0.0 0.0 0.00 0.00 0.00 34 1012.5
20260508193105 21 359 0.0 0.0 0.00 0.00 0.00 37 1012.6
20260508191556 21 359 0.0 0.0 0.00 0.00 0.00 33 1012.7
20260508190057 20 354 0.0 0.0 0.00 0.00 0.00 33 1013.0
20260508184555 21 13 0.0 0.0 0.00 0.00 0.00 36 1013.1
20260508183051 20 13 0.0 0.0 0.00 0.00 0.00 37 1013.3
20260508181551 20 13 0.0 0.0 0.00 0.00 0.00 39 1013.5
20260508180048 19 14 0.0 0.0 0.00 0.00 0.00 42 1013.6
20260508174550 18 13 0.0 0.0 0.00 0.00 0.00 44 1013.6
20260508173045 18 13 0.0 0.0 0.00 0.00 0.00 44 1013.7
20260508171540 18 341 0.0 0.0 0.00 0.00 0.00 40 1013.7
20260508170044 17 347 0.0 0.0 0.00 0.00 0.00 41 1013.6
20260508164542 17 359 0.0 0.0 0.00 0.00 0.00 41 1013.5
20260508163035 17 347 0.0 0.0 0.00 0.00 0.00 45 1013.4